Regional Weather Roundup
Issued by NWS

Home | Current Version | Previous Version | Text Only | Print | Product List | Glossary On
Versions: 1 2 3 4 5 6 7 8 9 10 11 12 13 14 15 16 17 18 19 20 21 22 23 24 25 26 27 28 29 30 31 32 33 34 35 36 37 38 39 40 41 42 43 44 45 46 47 48 49 50
000
ASUS44 KOUN 312010
RWROK

WEATHER ROUNDUP FOR OKLAHOMA
NATIONAL WEATHER SERVICE NORMAN OK
300 PM CDT MON AUG 31 2015

NOTE: "FAIR" INDICATES FEW OR NO CLOUDS BELOW 12,000 FEET WITH NO
      SIGNIFICANT WEATHER AND/OR OBSTRUCTIONS TO VISIBILITY.

OKZ001>007-009>012-014-015-017-312100-
NORTHWEST OKLAHOMA AND THE PANHANDLE

CITY           SKY/WX    TMP DP  RH WIND       PRES   REMARKS
GAGE           SUNNY     96  49  20 S20G31    29.95F HX  93
GUYMON         SUNNY     94  50  22 S23G30    29.93F HX  91
ENID/WOODRING  MOSUNNY   99  59  26 S17G25    29.92F HX  98
$$

OKZ016-021>023-033>039-044-045-312100-
SOUTHWEST OKLAHOMA

CITY           SKY/WX    TMP DP  RH WIND       PRES   REMARKS
LAWTON/REGL    MOSUNNY   96  58  27 SE13G21   29.96F HX  95
LAWTON/FT SILL SUNNY     96  61  31 S17G23    29.95F HX  96
FREDERICK      SUNNY     95  59  30 SE14G21   29.94F HX  94
CLINTON        SUNNY     95  52  23 S23G29    29.99F HX  92
HOBART         SUNNY     96  56  26 S17G25    29.97F HX  94
ALTUS AFB      SUNNY     96  55  25 SE14      29.96F HX  94
$$

OKZ018>020-024>031-312100-
CENTRAL OKLAHOMA

CITY           SKY/WX    TMP DP  RH WIND       PRES   REMARKS
OKLAHOMA CITY  SUNNY     92  62  36 S15G24    29.98F HX  92
OKC/WILEY POST SUNNY     94  60  32 SW14G23   29.97F HX  94
OKC/TINKER AFB SUNNY     92  62  35 S18       29.97F HX  93
STILLWATER     SUNNY     93  64  38 S18       29.95F HX  94
GUTHRIE        SUNNY     96  59  29 S16G24    29.95F HX  95
$$

OKZ008-013-054>072-312100-
NORTHEAST OKLAHOMA

CITY           SKY/WX    TMP DP  RH WIND       PRES   REMARKS
TULSA          MOSUNNY   92  68  45 S15       29.96F HX  96
TULSA/JONES    SUNNY     93  66  40 S12       29.97F HX  96
PONCA CITY     SUNNY     94  62  34 S10G20    29.92F HX  94
BARTLESVILLE   SUNNY     90  70  51 S10G20    29.97F HX  95
MUSKOGEE       SUNNY     89  70  53 S9        30.00F HX  94
$$

OKZ032-040>043-046>053-073>077-312100-
SOUTH CENTRAL/SOUTHEAST OKLAHOMA

CITY           SKY/WX    TMP DP  RH WIND       PRES   REMARKS
ARDMORE/DWNTWN SUNNY     91  55  29 S9G16     29.98F
MCALESTER      SUNNY     91  67  44 S8G16     30.00F HX  94
$$



USA.gov is the U.S. government's official web portal to all federal, state and local government web resources and services.